Wind_Speed
19 20 21 21 22 22 22 21 21 22 22 22 21 21 21 21 21 22 23 22 22 22 23 22 22 21 21 21 21 21 22 22 21 21 21 22 22 22 22 22 22 23 23
19 19 19 20 21 20 20 20 21 21 21 21 20 20 21 21 21 21 21 20 20 20 20 19 18 18 18 19 18 18 18 18 19 20 20 20 20 20 20 20 21 21 21
17 17 18 18 19 18 18 19 19 19 20 20 20 20 21 20 20 19 19 19 18 18 18 17 16 16 17 16 16 16 16 17 18 19 18 18 18 19 19 19 19 20 20
16 16 17 17 17 16 17 17 17 18 19 19 20 20 20 19 18 17 17 18 17 17 17 17 16 15 14 14 15 16 16 16 17 17 16 16 16 17 17 18 18 19 19
16 16 16 16 16 15 15 15 15 17 18 18 19 19 19 18 17 16 17 18 17 17 16 15 14 13 13 14 14 14 14 15 15 14 15 15 15 15 15 16 16 16 16
15 15 15 15 15 15 14 14 15 16 16 17 17 18 17 17 16 16 16 16 15 15 15 14 14 13 13 13 13 13 13 13 13 13 13 14 15 14 14 13 14 14 14
14 14 13 13 13 13 14 14 14 15 15 16 17 17 16 16 16 15 15 15 14 15 14 14 13 13 12 12 12 12 13 13 13 14 13 13 14 14 13 13 13 12 13
13 13 12 12 12 13 13 13 14 15 15 16 16 16 16 16 15 15 15 15 15 15 15 14 13 12 12 12 12 12 12 13 13 13 13 13 13 13 12 12 13 12 12
12 11 11 11 11 12 12 13 14 14 15 15 15 16 15 15 14 15 15 15 15 15 15 14 14 13 12 13 12 12 12 12 12 12 11 12 12 11 10 10 10 11 11
10 10 9 10 10 11 11 12 12 13 14 14 14 14 15 15 15 15 15 15 15 15 15 15 14 14 14 13 13 13 12 12 12 11 11 11 11 10 10 9 9 10 10
8 9 9 9 9 9 10 11 12 13 14 14 13 13 13 14 14 15 16 16 16 16 15 15 14 14 14 14 14 13 12 13 13 12 11 11 11 10 10 10 10 10 10
8 8 8 7 8 8 9 11 12 13 14 14 13 13 13 13 14 15 16 16 17 16 16 15 14 14 14 14 14 13 13 13 12 12 12 12 12 11 11 10 11 11 11
7 6 6 6 7 7 9 10 12 13 13 13 13 14 13 14 14 15 16 16 16 16 16 16 15 15 15 15 15 15 14 13 13 13 13 13 13 12 12 12 12 12 12
5 6 6 6 7 8 9 11 12 12 13 14 14 14 15 15 16 16 17 17 17 17 17 17 17 16 16 15 15 16 16 15 15 14 14 13 13 13 13 14 14 14 14
5 6 6 6 7 9 10 11 12 13 13 14 14 14 15 16 17 17 18 18 18 18 18 18 18 17 17 17 17 17 17 17 17 16 15 14 14 14 15 15 16 16 16
5 5 6 7 8 9 10 12 12 12 13 14 14 15 16 17 17 18 18 19 19 19 19 19 19 19 18 18 18 18 18 19 18 17 17 17 17 17 17 17 17 17 17
4 5 7 8 9 10 11 12 12 12 13 14 15 16 17 17 18 18 19 19 20 20 20 20 20 21 20 20 20 20 20 20 19 18 18 18 18 19 19 19 19 19 19
5 6 7 8 9 10 11 12 12 13 13 14 15 17 18 18 19 19 20 20 21 21 21 21 22 22 22 22 22 22 21 21 20 20 20 20 20 20 20 21 21 21 21
5 7 8 9 9 10 11 12 13 14 15 15 16 17 18 19 20 21 21 22 22 23 23 23 24 24 23 23 23 23 23 22 22 22 22 22 22 22 23 23 23 23 23
5 6 8 9 9 10 11 12 13 14 16 16 17 18 19 20 21 21 22 23 23 24 24 25 25 25 25 25 24 24 24 24 24 24 24 24 25 25 25 25 25 25 25
5 6 8 8 9 10 12 13 14 15 16 18 19 20 21 22 22 23 24 24 25 25 26 27 27 27 27 27 26 26 26 26 26 26 27 27 28 28 27 28 28 28 28
6 7 8 9 10 11 12 14 15 16 18 19 20 21 22 23 24 25 25 26 27 27 28 28 28 28 29 29 29 28 28 28 28 28 28 28 28 28 28 29 29 29 29
6 7 9 10 11 13 14 15 17 18 20 21 21 22 23 24 25 26 27 27 29 29 30 30 31 31 31 31 31 31 30 30 30 30 29 28 28 29 29 30 30 30 29
7 8 10 11 12 14 15 16 18 19 21 22 23 24 25 26 26 27 28 28 30 31 31 32 32 32 33 33 33 32 32 31 31 30 30 30 30 30 30 30 30 31 31
8 9 11 12 13 15 16 18 19 21 22 24 25 26 27 27 28 29 29 31 32 32 33 33 34 34 33 33 33 32 32 31 31 31 30 31 31 31 32 32 32 32 32
9 11 12 13 15 16 17 19 20 22 24 25 26 27 28 29 29 30 32 33 33 33 33 34 35 35 35 35 34 33 32 31 31 31 31 31 31 31 32 32 33 32 32
Wind_Direction
291 294 296 298 300 299 301 304 308 311 313 313 313 315 316 316 316 314 311 308 308 306 304 299 295 293 293 292 289 284 281 280 278 278 280 278 276 274 273 273 271 268 266
290 294 296 299 301 300 301 305 309 313 314 315 315 316 316 316 316 314 314 312 312 310 308 302 299 297 296 295 293 288 284 282 281 281 281 280 277 277 276 274 273 271 267
292 295 298 301 306 307 305 307 312 315 316 317 320 319 320 319 317 316 318 319 319 318 315 311 305 302 301 297 294 292 291 291 287 286 285 283 281 280 278 275 273 272 268
292 295 300 304 308 310 311 311 315 317 318 320 321 320 322 322 320 320 322 324 321 319 318 316 313 311 309 306 302 300 298 295 293 290 286 288 287 284 279 275 275 273 268
290 294 296 303 308 310 313 315 319 321 321 321 322 323 324 327 326 325 326 326 326 324 323 321 319 318 316 312 308 307 306 303 298 297 295 294 292 286 282 277 274 271 270
289 293 298 303 307 309 313 316 321 324 325 325 325 325 326 329 330 331 331 331 330 330 331 331 328 325 320 317 317 316 317 314 308 304 301 299 295 291 285 280 276 273 270
289 294 299 302 306 310 314 321 324 325 326 326 328 328 330 331 331 332 332 333 333 332 333 332 331 331 325 323 321 318 319 316 312 309 304 304 303 297 289 282 280 277 273
291 291 294 300 307 314 317 320 322 324 324 327 331 332 333 333 333 332 333 335 337 336 335 332 329 325 326 324 324 320 320 321 319 315 311 309 307 303 294 291 287 279 275
291 294 298 302 308 315 319 322 324 327 329 331 332 333 334 335 336 335 337 338 339 339 339 335 331 330 322 322 324 321 321 322 322 322 322 318 313 310 306 300 291 282 279
294 299 303 306 311 317 321 325 329 332 334 334 335 337 337 337 338 340 340 339 338 338 339 339 334 329 328 325 323 322 320 319 318 318 319 321 318 312 307 305 299 290 284
299 300 302 306 311 317 323 327 333 338 341 341 339 340 342 343 342 342 342 342 341 340 338 336 335 330 328 329 328 322 321 320 316 315 313 314 314 312 309 308 305 299 292
300 304 303 307 312 319 326 331 337 341 342 345 346 346 347 346 346 345 344 342 342 343 342 339 338 336 333 331 330 329 322 320 320 316 312 309 307 306 304 302 300 299 293
304 306 306 309 312 319 327 332 336 338 341 345 345 345 344 343 342 343 342 341 341 342 342 341 339 337 335 332 331 329 325 320 317 314 308 306 306 304 302 298 295 291 287
310 309 309 310 317 324 328 331 336 339 341 342 343 343 342 340 340 340 339 339 339 339 338 336 335 333 332 331 329 326 321 318 315 313 310 306 305 302 299 298 295 293 288
313 321 322 325 327 329 330 333 336 338 340 341 342 342 340 340 339 339 338 337 336 335 334 334 332 329 328 328 326 323 321 318 314 310 307 303 302 302 298 294 292 290 287
315 329 334 333 331 329 330 333 336 336 338 339 340 340 339 339 338 338 337 336 334 333 332 332 330 328 326 324 323 323 321 319 315 311 305 301 298 297 297 296 294 292 287
335 332 329 330 330 330 332 335 335 335 335 336 337 338 338 338 337 336 336 335 333 332 331 330 328 327 326 324 324 322 319 316 313 310 308 303 299 296 295 295 294 292 289
339 334 332 332 334 335 336 335 335 334 334 335 336 336 336 335 335 335 335 333 331 330 328 326 326 325 325 325 324 322 320 317 314 310 306 304 300 297 296 295 293 291 290
338 337 338 337 336 337 338 338 337 338 337 337 337 337 337 336 336 335 335 334 332 330 328 326 324 324 323 321 320 319 318 316 313 310 307 303 300 298 296 294 293 292 291
345 342 343 344 342 339 338 337 339 340 339 338 337 336 335 335 334 333 333 333 332 330 328 327 326 324 323 321 320 318 316 313 310 307 305 303 300 298 295 293 291 291 290
345 346 345 345 346 346 344 343 342 341 340 339 338 336 335 334 333 333 332 332 331 330 328 327 324 323 323 321 318 316 314 313 310 308 305 302 300 298 295 293 291 290 288
349 349 348 346 346 345 345 345 344 344 343 341 339 338 336 334 334 332 331 330 329 328 327 326 324 322 321 318 316 314 313 311 309 308 305 303 302 300 298 296 295 293 291
351 348 344 342 343 343 342 343 342 342 341 340 337 336 335 333 332 332 331 330 330 329 328 326 324 323 321 321 318 316 313 310 309 307 305 303 302 300 299 298 297 295 293
351 348 345 342 340 340 340 340 339 338 337 336 335 335 335 334 333 332 332 331 330 329 329 328 326 324 322 321 320 318 316 313 310 308 305 303 302 301 300 299 297 294 293
355 351 348 344 341 340 340 339 338 338 337 336 335 334 334 333 332 332 331 330 330 330 329 328 327 326 324 322 320 318 316 313 312 311 308 306 304 302 300 298 297 296 296
354 351 349 347 344 341 340 339 338 337 336 336 335 335 334 334 333 332 331 331 331 331 330 329 328 327 326 324 323 320 318 317 314 312 310 308 306 304 302 301 299 298 297
Height
5788 5787 5786 5785 5783 5781 5779 5777 5774 5772 5769 5766 5763 5760 5756 5753 5750 5747 5744 5741 5738 5735 5732 5729 5726 5724 5723 5721 5720 5718 5718 5717 5717 5716 5716 5716 5715 5715 5715 5715 5715 5716 5717
5784 5783 5782 5780 5779 5777 5775 5773 5770 5768 5765 5762 5759 5755 5752 5749 5746 5743 5739 5736 5733 5730 5727 5724 5722 5720 5718 5716 5715 5713 5713 5712 5711 5711 5710 5710 5710 5709 5709 5709 5709 5709 5710
5779 5779 5777 5776 5774 5773 5770 5769 5766 5764 5761 5758 5755 5752 5749 5745 5742 5739 5735 5732 5729 5726 5723 5720 5718 5716 5714 5712 5711 5709 5708 5707 5706 5706 5705 5705 5704 5704 5703 5703 5703 5703 5704
5776 5775 5774 5772 5771 5769 5767 5765 5763 5760 5758 5755 5752 5749 5745 5742 5738 5735 5732 5729 5726 5723 5720 5717 5715 5712 5711 5709 5708 5706 5705 5704 5702 5702 5701 5700 5699 5698 5698 5698 5698 5698 5698
5772 5771 5770 5769 5768 5766 5764 5762 5760 5757 5755 5752 5749 5746 5742 5739 5736 5733 5729 5726 5723 5720 5717 5714 5712 5710 5708 5707 5705 5703 5702 5700 5699 5698 5697 5696 5695 5694 5694 5693 5693 5692 5693
5768 5768 5767 5766 5765 5763 5761 5759 5757 5755 5752 5749 5746 5743 5740 5737 5734 5730 5727 5724 5721 5718 5715 5712 5710 5708 5706 5704 5702 5701 5699 5698 5696 5695 5694 5692 5691 5690 5689 5689 5688 5688 5688
5764 5764 5763 5763 5762 5760 5758 5756 5754 5752 5750 5747 5744 5741 5738 5734 5732 5729 5726 5723 5719 5716 5714 5711 5708 5706 5704 5702 5700 5699 5697 5695 5694 5692 5691 5690 5688 5687 5686 5685 5684 5684 5684
5761 5761 5760 5760 5759 5757 5756 5754 5752 5750 5747 5744 5742 5739 5736 5733 5730 5727 5724 5721 5718 5715 5712 5709 5706 5704 5702 5700 5699 5697 5695 5693 5692 5690 5689 5687 5686 5684 5682 5682 5681 5681 5681
5759 5758 5758 5757 5756 5755 5753 5751 5749 5747 5744 5742 5740 5737 5734 5731 5728 5725 5722 5719 5716 5713 5710 5707 5705 5703 5701 5698 5696 5695 5693 5692 5690 5688 5686 5685 5683 5681 5680 5679 5678 5678 5678
5756 5756 5755 5754 5754 5752 5751 5749 5747 5745 5742 5740 5738 5735 5732 5729 5726 5723 5720 5717 5714 5712 5709 5706 5703 5701 5699 5697 5695 5693 5691 5690 5688 5686 5685 5683 5681 5679 5678 5677 5676 5675 5675
5753 5753 5753 5752 5751 5750 5748 5747 5745 5743 5741 5738 5736 5733 5731 5728 5725 5722 5719 5716 5713 5710 5707 5704 5702 5699 5697 5695 5693 5691 5689 5687 5685 5684 5682 5681 5679 5677 5676 5674 5673 5672 5672
5751 5751 5750 5750 5749 5748 5747 5745 5744 5742 5739 5737 5734 5732 5730 5727 5724 5721 5718 5715 5712 5709 5706 5703 5700 5698 5695 5693 5691 5688 5686 5685 5683 5681 5679 5678 5677 5675 5674 5672 5671 5670 5669
5749 5749 5748 5748 5747 5746 5745 5744 5742 5740 5738 5736 5733 5731 5728 5726 5723 5720 5717 5714 5711 5708 5705 5702 5699 5696 5694 5691 5689 5686 5684 5682 5680 5678 5677 5675 5674 5672 5671 5669 5668 5667 5666
5748 5747 5747 5746 5746 5745 5744 5742 5741 5739 5737 5734 5732 5729 5727 5724 5721 5718 5715 5712 5709 5706 5703 5700 5697 5695 5692 5689 5686 5684 5681 5679 5677 5675 5673 5672 5670 5669 5667 5666 5665 5663 5662
5747 5746 5746 5745 5745 5744 5743 5741 5739 5737 5735 5733 5731 5728 5725 5722 5720 5716 5713 5711 5708 5705 5701 5698 5695 5693 5690 5687 5684 5681 5678 5676 5674 5671 5669 5668 5666 5665 5663 5662 5660 5659 5658
5746 5746 5745 5745 5744 5743 5742 5740 5738 5736 5734 5731 5729 5726 5723 5721 5718 5715 5711 5708 5705 5702 5699 5696 5693 5690 5687 5683 5680 5678 5675 5672 5669 5667 5665 5663 5662 5660 5658 5657 5655 5653 5652
5745 5745 5745 5744 5743 5741 5740 5738 5737 5735 5732 5730 5728 5725 5722 5719 5716 5713 5710 5706 5703 5699 5696 5693 5690 5686 5683 5680 5676 5673 5670 5667 5665 5662 5660 5658 5656 5655 5653 5651 5649 5648 5646
5745 5745 5744 5743 5742 5740 5739 5737 5735 5733 5731 5729 5726 5723 5720 5717 5714 5710 5707 5704 5700 5697 5693 5690 5686 5682 5679 5675 5672 5669 5666 5663 5660 5657 5655 5652 5650 5648 5647 5645 5643 5641 5639
5745 5744 5743 5742 5740 5739 5737 5736 5734 5731 5729 5727 5724 5721 5718 5715 5711 5708 5704 5701 5697 5693 5690 5686 5682 5678 5674 5671 5667 5664 5661 5657 5654 5652 5649 5646 5644 5642 5640 5638 5636 5634 5632
5745 5744 5743 5741 5740 5738 5737 5735 5733 5730 5727 5725 5722 5719 5716 5712 5709 5705 5701 5697 5693 5689 5685 5681 5677 5673 5669 5665 5662 5659 5655 5652 5649 5645 5643 5640 5637 5634 5632 5630 5628 5626 5624
5744 5743 5742 5741 5740 5738 5736 5734 5731 5729 5726 5723 5719 5716 5713 5709 5705 5702 5698 5693 5689 5685 5681 5676 5672 5668 5664 5660 5656 5652 5649 5645 5642 5638 5635 5632 5629 5626 5624 5621 5619 5617 5615
5744 5743 5742 5741 5739 5737 5735 5733 5730 5727 5724 5721 5717 5713 5710 5706 5702 5698 5694 5689 5685 5680 5676 5671 5666 5662 5658 5653 5649 5645 5641 5638 5634 5630 5627 5623 5620 5617 5614 5612 5609 5607 5605
5744 5743 5742 5740 5739 5737 5734 5732 5729 5726 5722 5719 5715 5711 5707 5703 5699 5695 5690 5685 5681 5675 5670 5666 5661 5655 5651 5646 5642 5638 5634 5629 5626 5622 5618 5614 5611 5608 5605 5603 5600 5598 5595
5744 5743 5741 5740 5738 5736 5733 5730 5727 5724 5720 5717 5713 5708 5704 5700 5695 5690 5686 5681 5676 5670 5665 5660 5655 5649 5644 5639 5635 5630 5625 5621 5617 5613 5609 5605 5602 5599 5596 5593 5590 5588 5585
5744 5742 5741 5739 5737 5734 5732 5729 5726 5722 5718 5714 5710 5705 5700 5695 5691 5686 5681 5676 5670 5665 5659 5654 5648 5643 5637 5632 5627 5622 5617 5612 5608 5604 5600 5596 5592 5589 5586 5583 5580 5578 5575
5744 5742 5740 5738 5736 5733 5730 5727 5723 5719 5715 5711 5706 5701 5696 5691 5686 5681 5676 5670 5665 5659 5654 5648 5642 5636 5630 5625 5619 5614 5609 5604 5599 5595 5591 5587 5583 5580 5576 5573 5570 5567 5564